Gauley at Summersville (cfs) [ USA-WVR ]

Edit Gauge

Current Conditions

Reading of "n/a" = frozen gauge or gauge error.
Reading Trend Type Updated
1921 cfs -8 cfs/hr Flow 01h00m

Station Description

AW Gauge ID: 8515
Source: virtual
Station: 8515
Enabled yes
Description:StreamTeam Member: Matt Muir The virtual Gauley gauge is based on the rating table published by the USGS in Oct 2003. Funding to update the rating table is no longer available. Discharge values calculated by this virtual gauge are thus calculated based on channel bed morphology as of 2003.
Calculation:$g = $gauge[1434]->getValue(GMETRIC_STAGE,0); if ($g >= 8.9) { $x=(-0.0344*pow($g,5))+(2.6808*pow($g,4))-(77.748*pow($g,3))+(1150.7*pow($g,2))-(7873.3*$g)+19890; } elseif ($g >= 7.0) { $x=(69.822*pow($g,2))-(656.23*$g)+1354.5; } elseif ($g >= 6.5) { $x=(171.43*pow($g,2))-(2104.1*$g)+6474; } else { $x=40; } $flow = $x;
Data is courtesy of AW's Stream Team program. This data is calculated based on other gauges and information provided by the Stream Team. This data, and any river data, should be used with caution.

Information

Flow

Gauge History

Times listed in GMT 24h, ET and PT hours provided for convenience Graphs in GMT. Readings of "n/a" constitute a frozen gauge or gauge error.
Reading Updated (GMT) Eastern Pacific Comment
1921.42 03/31/2015 07:25:52 Mar 31 03:25 am Mar 31 12:25 am
1929.77 03/31/2015 06:26:08 Mar 31 02:26 am Mar 30 11:26 pm
1929.77 03/31/2015 05:26:24 Mar 31 01:26 am Mar 30 10:26 pm
2376.70 03/31/2015 00:27:44 Mar 30 08:27 pm Mar 30 5:27 pm
2367.55 03/30/2015 23:25:52 Mar 30 07:25 pm Mar 30 4:25 pm
2340.19 03/30/2015 22:26:08 Mar 30 06:26 pm Mar 30 3:26 pm
2376.70 03/30/2015 21:26:24 Mar 30 05:26 pm Mar 30 2:26 pm
2385.86 03/30/2015 20:26:40 Mar 30 04:26 pm Mar 30 1:26 pm
2385.86 03/30/2015 19:26:56 Mar 30 03:26 pm Mar 30 12:26 pm
2385.86 03/30/2015 18:27:12 Mar 30 02:27 pm Mar 30 11:27 am
2376.70 03/30/2015 17:27:28 Mar 30 01:27 pm Mar 30 10:27 am
2358.41 03/30/2015 16:27:44 Mar 30 12:27 pm Mar 30 9:27 am
2376.70 03/30/2015 15:25:52 Mar 30 11:25 am Mar 30 8:25 am
2358.41 03/30/2015 14:26:08 Mar 30 10:26 am Mar 30 7:26 am
2367.55 03/30/2015 13:26:24 Mar 30 09:26 am Mar 30 6:26 am
2358.41 03/30/2015 12:26:40 Mar 30 08:26 am Mar 30 5:26 am
2349.29 03/30/2015 11:26:56 Mar 30 07:26 am Mar 30 4:26 am
2367.55 03/30/2015 10:27:12 Mar 30 06:27 am Mar 30 3:27 am
2367.55 03/30/2015 09:27:28 Mar 30 05:27 am Mar 30 2:27 am
2358.41 03/30/2015 08:27:44 Mar 30 04:27 am Mar 30 1:27 am
2367.55 03/30/2015 07:25:52 Mar 30 03:25 am Mar 30 12:25 am
2385.86 03/30/2015 06:26:08 Mar 30 02:26 am Mar 29 11:26 pm
2367.55 03/30/2015 05:26:24 Mar 30 01:26 am Mar 29 10:26 pm
2367.55 03/30/2015 04:26:40 Mar 30 12:26 am Mar 29 9:26 pm
1988.68 03/30/2015 03:26:56 Mar 29 11:26 pm Mar 29 8:26 pm
1988.68 03/30/2015 02:27:12 Mar 29 10:27 pm Mar 29 7:27 pm
1988.68 03/29/2015 23:25:52 Mar 29 07:25 pm Mar 29 4:25 pm
1980.22 03/29/2015 22:26:08 Mar 29 06:26 pm Mar 29 3:26 pm
1971.77 03/29/2015 21:26:24 Mar 29 05:26 pm Mar 29 2:26 pm
1980.22 03/29/2015 20:26:40 Mar 29 04:26 pm Mar 29 1:26 pm
1988.68 03/29/2015 19:26:56 Mar 29 03:26 pm Mar 29 12:26 pm
1997.16 03/29/2015 18:27:12 Mar 29 02:27 pm Mar 29 11:27 am
2667.81 03/29/2015 17:27:28 Mar 29 01:27 pm Mar 29 10:27 am
2658.19 03/29/2015 16:27:44 Mar 29 12:27 pm Mar 29 9:27 am
2667.81 03/29/2015 15:25:52 Mar 29 11:25 am Mar 29 8:25 am
2677.44 03/29/2015 14:26:08 Mar 29 10:26 am Mar 29 7:26 am
2667.81 03/29/2015 13:26:24 Mar 29 09:26 am Mar 29 6:26 am
2658.19 03/29/2015 12:26:40 Mar 29 08:26 am Mar 29 5:26 am
2667.81 03/29/2015 11:26:56 Mar 29 07:26 am Mar 29 4:26 am
2639.01 03/29/2015 10:27:12 Mar 29 06:27 am Mar 29 3:27 am
2667.81 03/29/2015 09:27:28 Mar 29 05:27 am Mar 29 2:27 am
2648.60 03/29/2015 08:27:44 Mar 29 04:27 am Mar 29 1:27 am
2648.60 03/29/2015 07:25:52 Mar 29 03:25 am Mar 29 12:25 am
2639.01 03/29/2015 06:26:08 Mar 29 02:26 am Mar 28 11:26 pm
2648.60 03/29/2015 05:26:24 Mar 29 01:26 am Mar 28 10:26 pm
2648.60 03/29/2015 04:26:40 Mar 29 12:26 am Mar 28 9:26 pm
2677.44 03/29/2015 03:26:56 Mar 28 11:26 pm Mar 28 8:26 pm
2853.27 03/29/2015 02:27:12 Mar 28 10:27 pm Mar 28 7:27 pm
2833.50 03/29/2015 01:27:28 Mar 28 09:27 pm Mar 28 6:27 pm
2833.50 03/29/2015 00:27:44 Mar 28 08:27 pm Mar 28 5:27 pm
2813.78 03/28/2015 23:25:52 Mar 28 07:25 pm Mar 28 4:25 pm
2803.95 03/28/2015 22:26:08 Mar 28 06:26 pm Mar 28 3:26 pm
2833.50 03/28/2015 21:26:24 Mar 28 05:26 pm Mar 28 2:26 pm
2823.63 03/28/2015 20:26:40 Mar 28 04:26 pm Mar 28 1:26 pm
2833.50 03/28/2015 19:26:56 Mar 28 03:26 pm Mar 28 12:26 pm
2833.50 03/28/2015 18:27:12 Mar 28 02:27 pm Mar 28 11:27 am
2823.63 03/28/2015 17:27:28 Mar 28 01:27 pm Mar 28 10:27 am
2813.78 03/28/2015 16:27:44 Mar 28 12:27 pm Mar 28 9:27 am
3136.17 03/28/2015 15:25:52 Mar 28 11:25 am Mar 28 8:25 am
3136.17 03/28/2015 14:26:08 Mar 28 10:26 am Mar 28 7:26 am
3156.82 03/28/2015 13:26:24 Mar 28 09:26 am Mar 28 6:26 am
3146.49 03/28/2015 09:27:28 Mar 28 05:27 am Mar 28 2:27 am
3115.59 03/28/2015 08:27:44 Mar 28 04:27 am Mar 28 1:27 am
3125.87 03/28/2015 07:25:52 Mar 28 03:25 am Mar 28 12:25 am
3125.87 03/28/2015 06:26:08 Mar 28 02:26 am Mar 27 11:26 pm
3105.32 03/28/2015 05:26:24 Mar 28 01:26 am Mar 27 10:26 pm
3125.87 03/28/2015 04:26:40 Mar 28 12:26 am Mar 27 9:26 pm
3702.82 03/28/2015 02:27:12 Mar 27 10:27 pm Mar 27 7:27 pm
3747.24 03/27/2015 23:25:52 Mar 27 07:25 pm Mar 27 4:25 pm
3647.61 03/27/2015 22:26:08 Mar 27 06:26 pm Mar 27 3:26 pm
3713.90 03/27/2015 21:26:24 Mar 27 05:26 pm Mar 27 2:26 pm
3702.82 03/27/2015 20:26:40 Mar 27 04:26 pm Mar 27 1:26 pm
3581.85 03/27/2015 19:26:56 Mar 27 03:26 pm Mar 27 12:26 pm
3560.05 03/27/2015 18:27:12 Mar 27 02:27 pm Mar 27 11:27 am
3581.85 03/27/2015 17:27:28 Mar 27 01:27 pm Mar 27 10:27 am
3592.78 03/27/2015 16:27:44 Mar 27 12:27 pm Mar 27 9:27 am
3581.85 03/27/2015 15:25:52 Mar 27 11:25 am Mar 27 8:25 am
3281.89 03/27/2015 14:26:08 Mar 27 10:26 am Mar 27 7:26 am
3271.39 03/27/2015 13:26:24 Mar 27 09:26 am Mar 27 6:26 am
3271.39 03/27/2015 12:26:40 Mar 27 08:26 am Mar 27 5:26 am
2725.80 03/27/2015 11:26:56 Mar 27 07:26 am Mar 27 4:26 am
2696.74 03/27/2015 10:27:12 Mar 27 06:27 am Mar 27 3:27 am
2469.03 03/27/2015 09:27:28 Mar 27 05:27 am Mar 27 2:27 am
1980.22 03/27/2015 08:27:44 Mar 27 04:27 am Mar 27 1:27 am
1954.92 03/27/2015 07:25:52 Mar 27 03:25 am Mar 27 12:25 am
1954.92 03/27/2015 06:26:08 Mar 27 02:26 am Mar 26 11:26 pm
1946.52 03/27/2015 05:26:24 Mar 27 01:26 am Mar 26 10:26 pm
1963.34 03/27/2015 04:26:40 Mar 27 12:26 am Mar 26 9:26 pm
1980.22 03/27/2015 02:27:12 Mar 26 10:27 pm Mar 26 7:27 pm
1888.18 03/27/2015 01:27:28 Mar 26 09:27 pm Mar 26 6:27 pm
1888.18 03/26/2015 23:25:52 Mar 26 07:25 pm Mar 26 4:25 pm
1896.47 03/26/2015 22:26:08 Mar 26 06:26 pm Mar 26 3:26 pm
1913.09 03/26/2015 21:26:24 Mar 26 05:26 pm Mar 26 2:26 pm
1616.43 03/26/2015 20:26:40 Mar 26 04:26 pm Mar 26 1:26 pm
1624.14 03/26/2015 19:26:56 Mar 26 03:26 pm Mar 26 12:26 pm
1525.28 03/26/2015 18:27:12 Mar 26 02:27 pm Mar 26 11:27 am
1525.28 03/26/2015 17:27:28 Mar 26 01:27 pm Mar 26 10:27 am
1525.28 03/26/2015 16:27:44 Mar 26 12:27 pm Mar 26 9:27 am
1532.78 03/26/2015 15:25:52 Mar 26 11:25 am Mar 26 8:25 am
1525.28 03/26/2015 14:26:08 Mar 26 10:26 am Mar 26 7:26 am
1517.80 03/26/2015 13:26:24 Mar 26 09:26 am Mar 26 6:26 am
1525.28 03/26/2015 12:26:40 Mar 26 08:26 am Mar 26 5:26 am
1547.83 03/26/2015 11:26:56 Mar 26 07:26 am Mar 26 4:26 am
1838.81 03/26/2015 10:27:12 Mar 26 06:27 am Mar 26 3:27 am
1830.64 03/26/2015 09:27:28 Mar 26 05:27 am Mar 26 2:27 am
1838.81 03/26/2015 08:27:44 Mar 26 04:27 am Mar 26 1:27 am
1863.42 03/26/2015 07:25:52 Mar 26 03:25 am Mar 26 12:25 am
1946.52 03/26/2015 06:26:08 Mar 26 02:26 am Mar 25 11:26 pm
1946.52 03/26/2015 05:26:24 Mar 26 01:26 am Mar 25 10:26 pm
1946.52 03/26/2015 04:26:40 Mar 26 12:26 am Mar 25 9:26 pm
1938.14 03/26/2015 02:27:12 Mar 25 10:27 pm Mar 25 7:27 pm
1946.52 03/26/2015 01:27:28 Mar 25 09:27 pm Mar 25 6:27 pm
1938.14 03/26/2015 00:27:44 Mar 25 08:27 pm Mar 25 5:27 pm
1938.14 03/25/2015 23:25:52 Mar 25 07:25 pm Mar 25 4:25 pm
1863.42 03/25/2015 22:26:08 Mar 25 06:26 pm Mar 25 3:26 pm
1855.20 03/25/2015 21:26:24 Mar 25 05:26 pm Mar 25 2:26 pm
1879.91 03/25/2015 20:26:40 Mar 25 04:26 pm Mar 25 1:26 pm
1822.49 03/25/2015 19:26:56 Mar 25 03:26 pm Mar 25 12:26 pm
1838.81 03/25/2015 18:27:12 Mar 25 02:27 pm Mar 25 11:27 am
1838.81 03/25/2015 17:27:28 Mar 25 01:27 pm Mar 25 10:27 am
1913.09 03/25/2015 16:27:44 Mar 25 12:27 pm Mar 25 9:27 am
1904.77 03/25/2015 15:25:52 Mar 25 11:25 am Mar 25 8:25 am
1913.09 03/25/2015 14:26:08 Mar 25 10:26 am Mar 25 7:26 am
1913.09 03/25/2015 13:26:24 Mar 25 09:26 am Mar 25 6:26 am
1904.77 03/25/2015 12:26:40 Mar 25 08:26 am Mar 25 5:26 am
1904.77 03/25/2015 11:26:56 Mar 25 07:26 am Mar 25 4:26 am
1904.77 03/25/2015 10:27:12 Mar 25 06:27 am Mar 25 3:27 am
1913.09 03/25/2015 09:27:28 Mar 25 05:27 am Mar 25 2:27 am
1921.42 03/25/2015 08:27:44 Mar 25 04:27 am Mar 25 1:27 am
1904.77 03/25/2015 07:25:52 Mar 25 03:25 am Mar 25 12:25 am
1904.77 03/25/2015 06:26:08 Mar 25 02:26 am Mar 24 11:26 pm
1913.09 03/25/2015 05:26:24 Mar 25 01:26 am Mar 24 10:26 pm
1913.09 03/25/2015 04:26:40 Mar 25 12:26 am Mar 24 9:26 pm
1929.77 03/25/2015 03:26:56 Mar 24 11:26 pm Mar 24 8:26 pm
2358.41 03/25/2015 02:27:12 Mar 24 10:27 pm Mar 24 7:27 pm
2358.41 03/25/2015 00:27:44 Mar 24 08:27 pm Mar 24 5:27 pm
2340.19 03/24/2015 23:25:52 Mar 24 07:25 pm Mar 24 4:25 pm
2367.55 03/24/2015 22:26:08 Mar 24 06:26 pm Mar 24 3:26 pm
2349.29 03/24/2015 21:26:24 Mar 24 05:26 pm Mar 24 2:26 pm
2349.29 03/24/2015 20:26:40 Mar 24 04:26 pm Mar 24 1:26 pm
2349.29 03/24/2015 19:26:56 Mar 24 03:26 pm Mar 24 12:26 pm
2349.29 03/24/2015 18:27:12 Mar 24 02:27 pm Mar 24 11:27 am
2358.41 03/24/2015 17:27:28 Mar 24 01:27 pm Mar 24 10:27 am
2367.55 03/24/2015 16:27:44 Mar 24 12:27 pm Mar 24 9:27 am
2358.41 03/24/2015 15:25:52 Mar 24 11:25 am Mar 24 8:25 am
2358.41 03/24/2015 14:26:08 Mar 24 10:26 am Mar 24 7:26 am
2376.70 03/24/2015 13:26:24 Mar 24 09:26 am Mar 24 6:26 am
2367.55 03/24/2015 12:26:40 Mar 24 08:26 am Mar 24 5:26 am
2367.55 03/24/2015 11:26:56 Mar 24 07:26 am Mar 24 4:26 am
2367.55 03/24/2015 10:27:12 Mar 24 06:27 am Mar 24 3:27 am
2376.70 03/24/2015 09:27:28 Mar 24 05:27 am Mar 24 2:27 am
2395.04 03/24/2015 08:27:44 Mar 24 04:27 am Mar 24 1:27 am
2367.55 03/24/2015 07:25:52 Mar 24 03:25 am Mar 24 12:25 am
2367.55 03/24/2015 06:26:08 Mar 24 02:26 am Mar 23 11:26 pm
2376.70 03/24/2015 05:26:24 Mar 24 01:26 am Mar 23 10:26 pm
2367.55 03/24/2015 04:26:40 Mar 24 12:26 am Mar 23 9:26 pm
2376.70 03/24/2015 03:26:56 Mar 23 11:26 pm Mar 23 8:26 pm
2367.55 03/24/2015 02:27:12 Mar 23 10:27 pm Mar 23 7:27 pm
2376.70 03/24/2015 00:27:44 Mar 23 08:27 pm Mar 23 5:27 pm
2367.55 03/23/2015 23:25:52 Mar 23 07:25 pm Mar 23 4:25 pm
2376.70 03/23/2015 22:26:08 Mar 23 06:26 pm Mar 23 3:26 pm
2358.41 03/23/2015 21:26:24 Mar 23 05:26 pm Mar 23 2:26 pm
2431.92 03/23/2015 20:26:40 Mar 23 04:26 pm Mar 23 1:26 pm
2422.68 03/23/2015 19:26:56 Mar 23 03:26 pm Mar 23 12:26 pm
2431.92 03/23/2015 18:27:12 Mar 23 02:27 pm Mar 23 11:27 am
2441.17 03/23/2015 17:27:28 Mar 23 01:27 pm Mar 23 10:27 am
2441.17 03/23/2015 16:27:44 Mar 23 12:27 pm Mar 23 9:27 am
2450.44 03/23/2015 15:25:52 Mar 23 11:25 am Mar 23 8:25 am
2441.17 03/23/2015 14:26:08 Mar 23 10:26 am Mar 23 7:26 am
2431.92 03/23/2015 13:26:24 Mar 23 09:26 am Mar 23 6:26 am
2459.73 03/23/2015 12:26:40 Mar 23 08:26 am Mar 23 5:26 am
2902.95 03/23/2015 11:26:56 Mar 23 07:26 am Mar 23 4:26 am
2883.03 03/23/2015 10:27:12 Mar 23 06:27 am Mar 23 3:27 am
2902.95 03/23/2015 09:27:28 Mar 23 05:27 am Mar 23 2:27 am
2902.95 03/23/2015 08:27:44 Mar 23 04:27 am Mar 23 1:27 am
2892.98 03/23/2015 07:25:52 Mar 23 03:25 am Mar 23 12:25 am
2922.92 03/23/2015 06:26:08 Mar 23 02:26 am Mar 22 11:26 pm
2902.95 03/23/2015 05:26:24 Mar 23 01:26 am Mar 22 10:26 pm
2892.98 03/23/2015 04:26:40 Mar 23 12:26 am Mar 22 9:26 pm
2963.05 03/23/2015 03:26:56 Mar 22 11:26 pm Mar 22 8:26 pm
2953.00 03/23/2015 02:27:12 Mar 22 10:27 pm Mar 22 7:27 pm
2973.12 03/23/2015 01:27:28 Mar 22 09:27 pm Mar 22 6:27 pm
2883.03 03/22/2015 23:25:52 Mar 22 07:25 pm Mar 22 4:25 pm
2892.98 03/22/2015 22:26:08 Mar 22 06:26 pm Mar 22 3:26 pm
2912.93 03/22/2015 21:26:24 Mar 22 05:26 pm Mar 22 2:26 pm
2912.93 03/22/2015 20:26:40 Mar 22 04:26 pm Mar 22 1:26 pm
2883.03 03/22/2015 19:26:56 Mar 22 03:26 pm Mar 22 12:26 pm
2873.10 03/22/2015 18:27:12 Mar 22 02:27 pm Mar 22 11:27 am
2902.95 03/22/2015 17:27:28 Mar 22 01:27 pm Mar 22 10:27 am
2873.10 03/22/2015 16:27:44 Mar 22 12:27 pm Mar 22 9:27 am
2892.98 03/22/2015 15:25:52 Mar 22 11:25 am Mar 22 8:25 am
2902.95 03/22/2015 14:26:08 Mar 22 10:26 am Mar 22 7:26 am
3003.41 03/22/2015 13:26:24 Mar 22 09:26 am Mar 22 6:26 am
3084.82 03/22/2015 12:26:40 Mar 22 08:26 am Mar 22 5:26 am
3260.90 03/22/2015 11:26:56 Mar 22 07:26 am Mar 22 4:26 am
3260.90 03/22/2015 10:27:12 Mar 22 06:27 am Mar 22 3:27 am
3302.94 03/22/2015 09:27:28 Mar 22 05:27 am Mar 22 2:27 am
3302.94 03/22/2015 08:27:44 Mar 22 04:27 am Mar 22 1:27 am
3271.39 03/22/2015 07:25:52 Mar 22 03:25 am Mar 22 12:25 am
3281.89 03/22/2015 06:26:08 Mar 22 02:26 am Mar 21 11:26 pm
3281.89 03/22/2015 05:26:24 Mar 22 01:26 am Mar 21 10:26 pm
3281.89 03/22/2015 04:26:40 Mar 22 12:26 am Mar 21 9:26 pm
3271.39 03/22/2015 03:26:56 Mar 21 11:26 pm Mar 21 8:26 pm
3239.97 03/22/2015 01:27:28 Mar 21 09:27 pm Mar 21 6:27 pm
3387.71 03/21/2015 23:25:52 Mar 21 07:25 pm Mar 21 4:25 pm
3419.74 03/21/2015 22:26:08 Mar 21 06:26 pm Mar 21 3:26 pm
3473.42 03/21/2015 21:26:24 Mar 21 05:26 pm Mar 21 2:26 pm
3430.45 03/21/2015 20:26:40 Mar 21 04:26 pm Mar 21 1:26 pm
3419.74 03/21/2015 19:26:56 Mar 21 03:26 pm Mar 21 12:26 pm
3398.38 03/21/2015 18:27:12 Mar 21 02:27 pm Mar 21 11:27 am
3409.05 03/21/2015 17:27:28 Mar 21 01:27 pm Mar 21 10:27 am
3636.62 03/21/2015 16:27:44 Mar 21 12:27 pm Mar 21 9:27 am
3647.61 03/21/2015 15:25:52 Mar 21 11:25 am Mar 21 8:25 am
3658.63 03/21/2015 14:26:08 Mar 21 10:26 am Mar 21 7:26 am
3647.61 03/21/2015 13:26:24 Mar 21 09:26 am Mar 21 6:26 am
3625.64 03/21/2015 12:26:40 Mar 21 08:26 am Mar 21 5:26 am
3647.61 03/21/2015 11:26:56 Mar 21 07:26 am Mar 21 4:26 am
3647.61 03/21/2015 10:27:12 Mar 21 06:27 am Mar 21 3:27 am
3647.61 03/21/2015 09:27:28 Mar 21 05:27 am Mar 21 2:27 am
3614.67 03/21/2015 08:27:44 Mar 21 04:27 am Mar 21 1:27 am
3292.41 03/21/2015 07:25:52 Mar 21 03:25 am Mar 21 12:25 am
3105.32 03/21/2015 06:26:08 Mar 21 02:26 am Mar 20 11:26 pm
3125.87 03/21/2015 05:26:24 Mar 21 01:26 am Mar 20 10:26 pm
3115.59 03/21/2015 04:26:40 Mar 21 12:26 am Mar 20 9:26 pm
3125.87 03/21/2015 03:26:56 Mar 20 11:26 pm Mar 20 8:26 pm
3146.49 03/21/2015 02:27:12 Mar 20 10:27 pm Mar 20 7:27 pm
3592.78 03/20/2015 23:25:52 Mar 20 07:25 pm Mar 20 4:25 pm
3614.67 03/20/2015 22:26:08 Mar 20 06:26 pm Mar 20 3:26 pm
3603.71 03/20/2015 21:26:24 Mar 20 05:26 pm Mar 20 2:26 pm
3614.67 03/20/2015 20:26:40 Mar 20 04:26 pm Mar 20 1:26 pm
3614.67 03/20/2015 19:26:56 Mar 20 03:26 pm Mar 20 12:26 pm
3669.65 03/20/2015 18:27:12 Mar 20 02:27 pm Mar 20 11:27 am
3691.75 03/20/2015 17:27:28 Mar 20 01:27 pm Mar 20 10:27 am
3669.65 03/20/2015 16:27:44 Mar 20 12:27 pm Mar 20 9:27 am
3647.61 03/20/2015 15:25:52 Mar 20 11:25 am Mar 20 8:25 am
3658.63 03/20/2015 14:26:08 Mar 20 10:26 am Mar 20 7:26 am
3669.65 03/20/2015 13:26:24 Mar 20 09:26 am Mar 20 6:26 am
4228.01 03/20/2015 12:26:40 Mar 20 08:26 am Mar 20 5:26 am
4263.36 03/20/2015 11:26:56 Mar 20 07:26 am Mar 20 4:26 am
4228.01 03/20/2015 10:27:12 Mar 20 06:27 am Mar 20 3:27 am
4239.78 03/20/2015 09:27:28 Mar 20 05:27 am Mar 20 2:27 am
4216.26 03/20/2015 08:27:44 Mar 20 04:27 am Mar 20 1:27 am
4228.01 03/20/2015 07:25:52 Mar 20 03:25 am Mar 20 12:25 am
4192.79 03/20/2015 06:26:08 Mar 20 02:26 am Mar 19 11:26 pm
4204.52 03/20/2015 05:26:24 Mar 20 01:26 am Mar 19 10:26 pm
4216.26 03/20/2015 04:26:40 Mar 20 12:26 am Mar 19 9:26 pm
4228.01 03/20/2015 02:27:12 Mar 19 10:27 pm Mar 19 7:27 pm
4251.56 03/20/2015 01:27:28 Mar 19 09:27 pm Mar 19 6:27 pm
4239.78 03/19/2015 23:25:52 Mar 19 07:25 pm Mar 19 4:25 pm
4251.56 03/19/2015 22:26:08 Mar 19 06:26 pm Mar 19 3:26 pm
4263.36 03/19/2015 21:26:24 Mar 19 05:26 pm Mar 19 2:26 pm
4287.00 03/19/2015 20:26:40 Mar 19 04:26 pm Mar 19 1:26 pm
4251.56 03/19/2015 19:26:56 Mar 19 03:26 pm Mar 19 12:26 pm
5050.75 03/19/2015 18:27:12 Mar 19 02:27 pm Mar 19 11:27 am
4961.46 03/19/2015 17:27:28 Mar 19 01:27 pm Mar 19 10:27 am
4974.17 03/19/2015 16:27:44 Mar 19 12:27 pm Mar 19 9:27 am
5012.39 03/19/2015 15:25:52 Mar 19 11:25 am Mar 19 8:25 am
5012.39 03/19/2015 14:26:08 Mar 19 10:26 am Mar 19 7:26 am
5780.73 03/19/2015 13:26:24 Mar 19 09:26 am Mar 19 6:26 am
5725.89 03/19/2015 12:26:40 Mar 19 08:26 am Mar 19 5:26 am
6939.27 03/19/2015 11:26:56 Mar 19 07:26 am Mar 19 4:26 am
7000.43 03/19/2015 10:27:12 Mar 19 06:27 am Mar 19 3:27 am
7046.51 03/19/2015 09:27:28 Mar 19 05:27 am Mar 19 2:27 am
7108.24 03/19/2015 08:27:44 Mar 19 04:27 am Mar 19 1:27 am
7046.51 03/19/2015 07:25:52 Mar 19 03:25 am Mar 19 12:25 am
7000.43 03/19/2015 06:26:08 Mar 19 02:26 am Mar 18 11:26 pm
7015.77 03/19/2015 05:26:24 Mar 19 01:26 am Mar 18 10:26 pm
6969.81 03/19/2015 04:26:40 Mar 19 12:26 am Mar 18 9:26 pm
7077.33 03/19/2015 01:27:28 Mar 18 09:27 pm Mar 18 6:27 pm
6985.11 03/18/2015 23:25:52 Mar 18 07:25 pm Mar 18 4:25 pm
6985.11 03/18/2015 22:26:08 Mar 18 06:26 pm Mar 18 3:26 pm
7000.43 03/18/2015 21:26:24 Mar 18 05:26 pm Mar 18 2:26 pm
6939.27 03/18/2015 20:26:40 Mar 18 04:26 pm Mar 18 1:26 pm
7031.13 03/18/2015 19:26:56 Mar 18 03:26 pm Mar 18 12:26 pm
6954.53 03/18/2015 18:27:12 Mar 18 02:27 pm Mar 18 11:27 am
7046.51 03/18/2015 16:27:44 Mar 18 12:27 pm Mar 18 9:27 am
6939.27 03/18/2015 15:25:52 Mar 18 11:25 am Mar 18 8:25 am
8311.25 03/18/2015 14:26:08 Mar 18 10:26 am Mar 18 7:26 am
8414.09 03/18/2015 13:26:24 Mar 18 09:26 am Mar 18 6:26 am
9341.07 03/18/2015 12:26:40 Mar 18 08:26 am Mar 18 5:26 am
9304.20 03/18/2015 11:26:56 Mar 18 07:26 am Mar 18 4:26 am
9304.20 03/18/2015 10:27:12 Mar 18 06:27 am Mar 18 3:27 am
9378.04 03/18/2015 09:27:28 Mar 18 05:27 am Mar 18 2:27 am
9212.47 03/18/2015 08:27:44 Mar 18 04:27 am Mar 18 1:27 am
9249.09 03/18/2015 07:25:52 Mar 18 03:25 am Mar 18 12:25 am
9194.20 03/18/2015 06:26:08 Mar 18 02:26 am Mar 17 11:26 pm
9212.47 03/18/2015 05:26:24 Mar 18 01:26 am Mar 17 10:26 pm
9194.20 03/18/2015 04:26:40 Mar 18 12:26 am Mar 17 9:26 pm
9359.54 03/18/2015 03:26:56 Mar 17 11:26 pm Mar 17 8:26 pm
9378.04 03/18/2015 00:27:44 Mar 17 08:27 pm Mar 17 5:27 pm
9212.47 03/17/2015 23:25:52 Mar 17 07:25 pm Mar 17 4:25 pm
9249.09 03/17/2015 22:26:08 Mar 17 06:26 pm Mar 17 3:26 pm
9304.20 03/17/2015 21:26:24 Mar 17 05:26 pm Mar 17 2:26 pm
9230.77 03/17/2015 20:26:40 Mar 17 04:26 pm Mar 17 1:26 pm
9341.07 03/17/2015 19:26:56 Mar 17 03:26 pm Mar 17 12:26 pm
9359.54 03/17/2015 18:27:12 Mar 17 02:27 pm Mar 17 11:27 am
9415.10 03/17/2015 17:27:28 Mar 17 01:27 pm Mar 17 10:27 am
9341.07 03/17/2015 16:27:44 Mar 17 12:27 pm Mar 17 9:27 am
9396.55 03/17/2015 15:25:52 Mar 17 11:25 am Mar 17 8:25 am
10177.80 03/17/2015 14:26:08 Mar 17 10:26 am Mar 17 7:26 am

Report - Reports of Related Gauges

Reports give the public a chance to report on river conditions throughout the country as well as log the history of a river.

Reports

When River/Gauge Subject Level Reporter
5y309d20h29m Gauley at Summersville (cfs) [WV] Account of 05/26/09 245 cfs Ryan Groth

Linked Reaches

Click a heading to sort. Hover over a heading for help.
River Name/Section Class Level running? Updated
Gauley [WV] 7 (Upper). Summersville Dam to Mason Branch IV-V 1921 cfs
-8 cfs/hr
R2-
Lower Runnable
01h00m
Gauley [WV] 9 (Lower). Bucklick Branch to Swiss III-IV(V) 3180 cfs
-184 cfs/hr
R3-
Runnable
00h26m

Associated Gauges

Disclaimer Data Sources

GAULEY RIVER BELOW SUMMERSVILLE DAM, WV (AW#1434)

10.09 ft 00h58m